UAL57 KEWR-LFPG

Flight info

Callsign UAL57
Flight time N/A
Altitude 37000
Route MERIT DCT HFD DCT PUT DCT BOS DCT BRADD N175G PORTI/M084F400 NATT GISTI/N0481F410 DCT NORLA DCT PEWBI DCT OXLOW M140 SAM L620 MID/N0457F290 Y803 SFD UM605 BIBAX
Aircraft B772/H-SDE2E3FGHIJ5LORVWXY/LB1D1

Departure

Time 2026-04-25 20:42
Airport Newark Liberty International Airport (KEWR)

Arrival

Time N/A
Airport Charles de Gaulle International Airport (LFPG)
Time Latitude Longitude Altitude Speed Heading
2026-04-25 20:17 40.69680 -74.17680 27 ft 0 kts 165°
2026-04-25 20:34 40.69712 -74.17697 30 ft 4 kts 133°
2026-04-25 20:34 40.69721 -74.17713 32 ft 4 kts 42°
2026-04-25 20:34 40.69716 -74.17716 29 ft 1 kts
2026-04-25 20:34 40.69715 -74.17716 29 ft 0 kts
2026-04-25 20:36 40.69748 -74.17713 26 ft 15 kts
2026-04-25 20:36 40.69844 -74.17670 26 ft 18 kts 36°
2026-04-25 20:37 40.69924 -74.17534 26 ft 19 kts 50°
2026-04-25 20:37 40.69942 -74.17373 25 ft 20 kts 114°
2026-04-25 20:37 40.69846 -74.17202 26 ft 25 kts 135°
2026-04-25 20:37 40.69699 -74.17055 26 ft 27 kts 151°
2026-04-25 20:38 40.69523 -74.16978 26 ft 27 kts 171°
2026-04-25 20:38 40.69336 -74.16984 26 ft 27 kts 190°
2026-04-25 20:38 40.69148 -74.17080 30 ft 30 kts 205°
2026-04-25 20:38 40.68962 -74.17196 29 ft 30 kts 206°
2026-04-25 20:39 40.68773 -74.17319 27 ft 30 kts 206°
2026-04-25 20:39 40.68585 -74.17439 27 ft 30 kts 206°
2026-04-25 20:39 40.68397 -74.17558 27 ft 30 kts 206°
2026-04-25 20:39 40.68336 -74.17597 27 ft 30 kts 205°
2026-04-25 20:40 40.68021 -74.17793 28 ft 30 kts 206°
2026-04-25 20:40 40.67836 -74.17914 27 ft 30 kts 206°
2026-04-25 20:40 40.67651 -74.18033 27 ft 26 kts 200°
2026-04-25 20:40 40.67572 -74.17981 27 ft 14 kts 110°
2026-04-25 20:41 40.67595 -74.17910 26 ft 5 kts 25°
2026-04-25 20:41 40.67773 -74.17795 28 ft 64 kts 25°
2026-04-25 20:41 40.68415 -74.17392 28 ft 137 kts 24°
2026-04-25 20:41 40.69418 -74.16760 238 ft 171 kts 28°
2026-04-25 20:42 40.70512 -74.16076 446 ft 179 kts 30°
2026-04-25 20:42 40.71696 -74.15287 735 ft 207 kts 31°
2026-04-25 20:42 40.73021 -74.14380 1608 ft 220 kts 31°
2026-04-25 20:42 40.74425 -74.13432 2133 ft 245 kts 31°
2026-04-25 20:43 40.75920 -74.12422 2747 ft 253 kts 34°
2026-04-25 20:43 40.77251 -74.10906 3372 ft 254 kts 55°
2026-04-25 20:43 40.77942 -74.09742 3567 ft 262 kts 55°
2026-04-25 20:43 40.79516 -74.07186 4650 ft 278 kts 53°
2026-04-25 20:44 40.80779 -74.05190 5333 ft 287 kts 51°
2026-04-25 20:44 40.81638 -74.03828 5807 ft 292 kts 51°
2026-04-25 20:44 40.82962 -74.01733 6511 ft 301 kts 49°
2026-04-25 20:44 40.84293 -73.99634 7283 ft 304 kts 48°
2026-04-25 20:45 40.85651 -73.97495 8151 ft 304 kts 48°
2026-04-25 20:45 40.87014 -73.95342 9028 ft 305 kts 48°
2026-04-25 20:45 40.88387 -73.93177 9811 ft 309 kts 47°
2026-04-25 20:45 40.89780 -73.90987 10427 ft 318 kts 47°
2026-04-25 20:46 40.91256 -73.88665 10622 ft 342 kts 47°
2026-04-25 20:46 40.92846 -73.86167 10821 ft 367 kts 47°
2026-04-25 20:46 40.94538 -73.83500 11093 ft 388 kts 48°
2026-04-25 20:46 40.96273 -73.80758 11717 ft 399 kts 48°
2026-04-25 20:47 40.98065 -73.77920 12467 ft 405 kts 48°
2026-04-25 20:47 40.99883 -73.75034 13311 ft 410 kts 48°
2026-04-25 20:47 41.01719 -73.72118 14127 ft 414 kts 48°
2026-04-25 20:47 41.03581 -73.69163 14865 ft 419 kts 48°
2026-04-25 20:48 41.05464 -73.66170 15562 ft 424 kts 48°
2026-04-25 20:48 41.07365 -73.63150 16275 ft 429 kts 47°
2026-04-25 20:48 41.09285 -73.60097 16974 ft 433 kts 47°
2026-04-25 20:48 41.11220 -73.57015 17644 ft 438 kts 47°
2026-04-25 20:49 41.13180 -73.53890 18303 ft 443 kts 47°
2026-04-25 20:49 41.15159 -73.50732 18904 ft 447 kts 47°
2026-04-25 20:49 41.17154 -73.47544 19506 ft 451 kts 47°
2026-04-25 20:49 41.19167 -73.44323 20100 ft 454 kts 46°
2026-04-25 20:50 41.21184 -73.41093 20673 ft 457 kts 46°
2026-04-25 20:50 41.23225 -73.37821 21230 ft 461 kts 46°
2026-04-25 20:50 41.25249 -73.34573 21769 ft 464 kts 46°
2026-04-25 20:50 41.27344 -73.31208 22319 ft 468 kts 46°
2026-04-25 20:51 41.29396 -73.27905 22900 ft 471 kts 46°
2026-04-25 20:51 41.31488 -73.24536 23468 ft 474 kts 45°
2026-04-25 20:51 41.33600 -73.21134 23937 ft 477 kts 45°
2026-04-25 20:51 41.35717 -73.17719 24348 ft 481 kts 45°
2026-04-25 20:52 41.37835 -73.14238 24741 ft 487 kts 48°
2026-04-25 20:52 41.39171 -73.11733 25008 ft 494 kts 52°
2026-04-25 20:52 41.41511 -73.06485 25499 ft 501 kts 56°
2026-04-25 20:52 41.43256 -73.02440 25917 ft 504 kts 56°
2026-04-25 20:53 41.45010 -72.98378 26358 ft 505 kts 56°
2026-04-25 20:53 41.46777 -72.94315 26760 ft 508 kts 55°
2026-04-25 20:53 41.48560 -72.90239 27127 ft 510 kts 55°
2026-04-25 20:53 41.50361 -72.86137 27481 ft 513 kts 55°
2026-04-25 20:54 41.52175 -72.82010 27812 ft 516 kts 55°
2026-04-25 20:54 41.53970 -72.77921 28124 ft 519 kts 55°
2026-04-25 20:54 41.55797 -72.73751 28437 ft 522 kts 55°
2026-04-25 20:54 41.57631 -72.69557 28734 ft 524 kts 55°
2026-04-25 20:55 41.59475 -72.65331 29005 ft 527 kts 55°
2026-04-25 20:55 41.61322 -72.61092 29258 ft 529 kts 55°
2026-04-25 20:55 41.63175 -72.56835 29570 ft 530 kts 55°
2026-04-25 20:55 41.65033 -72.52578 29871 ft 530 kts 54°
2026-04-25 20:56 41.66929 -72.48331 30158 ft 531 kts 54°
2026-04-25 20:56 41.68837 -72.44117 30456 ft 530 kts 53°
2026-04-25 20:56 41.70753 -72.39896 30775 ft 529 kts 53°
2026-04-25 20:56 41.72658 -72.35687 31070 ft 528 kts 53°
2026-04-25 20:57 41.74558 -72.31475 31342 ft 528 kts 54°
2026-04-25 20:57 41.76455 -72.27250 31615 ft 528 kts 54°
2026-04-25 20:57 41.78342 -72.23032 31927 ft 527 kts 53°
2026-04-25 20:57 41.80223 -72.18821 32247 ft 526 kts 53°
2026-04-25 20:58 41.82073 -72.14670 32559 ft 526 kts 53°
2026-04-25 20:58 41.83950 -72.10459 32785 ft 526 kts 53°
2026-04-25 20:58 41.85827 -72.06239 33023 ft 527 kts 53°
2026-04-25 20:58 41.87703 -72.02018 33314 ft 526 kts 53°
2026-04-25 20:59 41.89578 -71.97790 33612 ft 526 kts 53°
2026-04-25 20:59 41.91447 -71.93572 33868 ft 526 kts 53°
2026-04-25 20:59 41.93314 -71.89352 34148 ft 525 kts 53°
2026-04-25 20:59 41.95171 -71.85147 34518 ft 521 kts 53°
2026-04-25 21:00 41.97043 -71.80983 34866 ft 518 kts 52°
2026-04-25 21:00 41.98314 -71.78272 35038 ft 516 kts 51°
2026-04-25 21:00 42.02373 -71.69853 35575 ft 513 kts 50°
2026-04-25 21:01 42.04320 -71.65820 35840 ft 512 kts 51°
2026-04-25 21:01 42.06248 -71.61798 36098 ft 511 kts 51°
2026-04-25 21:01 42.08167 -71.57765 36351 ft 510 kts 51°
2026-04-25 21:01 42.10049 -71.53790 36627 ft 508 kts 51°
2026-04-25 21:02 42.11935 -71.49790 36977 ft 504 kts 51°
2026-04-25 21:02 42.15706 -71.41786 37103 ft 507 kts 51°
2026-04-25 21:03 42.19495 -71.33728 37106 ft 509 kts 51°
2026-04-25 21:03 42.23288 -71.25636 37107 ft 510 kts 51°
2026-04-25 21:04 42.27077 -71.17529 37131 ft 510 kts 51°
2026-04-25 21:04 42.30857 -71.09422 37122 ft 510 kts 51°
2026-04-25 21:05 42.34547 -71.01236 37111 ft 513 kts 57°
2026-04-25 21:05 42.37288 -70.92322 37115 ft 521 kts 68°
2026-04-25 21:06 42.39294 -70.82896 37126 ft 522 kts 69°
2026-04-25 21:06 42.41271 -70.73456 37122 ft 521 kts 69°
2026-04-25 21:07 42.43279 -70.64025 37117 ft 520 kts 69°
2026-04-25 21:07 42.45300 -70.54611 37118 ft 520 kts 69°
2026-04-25 21:08 42.47316 -70.45207 37119 ft 520 kts 68°
2026-04-25 21:08 42.49310 -70.35849 37121 ft 520 kts 69°
2026-04-25 21:09 42.52306 -70.21699 37124 ft 520 kts 69°
2026-04-25 21:09 42.54293 -70.12257 37135 ft 521 kts 69°
2026-04-25 21:10 42.56277 -70.02787 37125 ft 522 kts 69°
2026-04-25 21:10 42.58253 -69.93316 37127 ft 522 kts 69°
2026-04-25 21:11 42.60210 -69.83888 37142 ft 522 kts 69°
2026-04-25 21:11 42.62174 -69.74384 37132 ft 522 kts 69°
2026-04-25 21:12 42.64130 -69.64880 37124 ft 523 kts 69°
2026-04-25 21:12 42.65749 -69.56972 37125 ft 522 kts 69°
2026-04-25 21:13 42.68019 -69.45841 37123 ft 523 kts 68°
2026-04-25 21:13 42.69941 -69.36363 37120 ft 523 kts 68°
2026-04-25 21:14 42.71869 -69.26814 37126 ft 523 kts 68°
2026-04-25 21:14 42.73790 -69.17253 37140 ft 524 kts 68°
2026-04-25 21:15 42.75705 -69.07675 37116 ft 524 kts 68°
2026-04-25 21:15 42.77612 -68.98098 37115 ft 524 kts 68°
2026-04-25 21:16 42.79512 -68.88503 37110 ft 524 kts 68°
2026-04-25 21:16 42.81393 -68.78962 37103 ft 525 kts 68°
2026-04-25 21:17 42.83276 -68.69360 37101 ft 525 kts 68°
2026-04-25 21:17 42.85151 -68.59755 37102 ft 524 kts 68°
2026-04-25 21:18 42.87017 -68.50146 37127 ft 524 kts 68°
2026-04-25 21:18 42.88880 -68.40510 37107 ft 524 kts 68°
2026-04-25 21:19 42.90729 -68.30898 37110 ft 524 kts 68°
2026-04-25 21:19 42.92557 -68.21344 37097 ft 523 kts 68°
2026-04-25 21:20 42.93783 -68.14914 37096 ft 523 kts 68°
2026-04-25 21:20 42.96207 -68.02129 37092 ft 521 kts 68°
2026-04-25 21:21 42.98006 -67.92590 37082 ft 521 kts 68°
2026-04-25 21:21 42.99802 -67.83017 37119 ft 520 kts 68°
2026-04-25 21:22 43.01590 -67.73438 37076 ft 519 kts 68°
2026-04-25 21:22 43.03366 -67.63879 37075 ft 519 kts 68°
2026-04-25 21:23 43.05133 -67.54315 37071 ft 518 kts 68°
2026-04-25 21:23 43.06891 -67.44756 37082 ft 518 kts 68°
2026-04-25 21:24 43.08643 -67.35177 37083 ft 519 kts 68°
2026-04-25 21:24 43.10389 -67.25587 37077 ft 519 kts 68°
2026-04-25 21:25 43.12112 -67.16063 37071 ft 518 kts 68°
2026-04-25 21:25 43.13837 -67.06490 37063 ft 517 kts 68°
2026-04-25 21:26 43.15789 -66.97079 37060 ft 507 kts 60°
2026-04-25 21:26 43.18486 -66.88221 37099 ft 503 kts 59°
2026-04-25 21:27 43.21208 -66.79456 37061 ft 503 kts 59°
2026-04-25 21:27 43.23917 -66.70598 37066 ft 503 kts 59°
2026-04-25 21:28 43.26594 -66.61724 37051 ft 503 kts 59°
2026-04-25 21:28 43.29260 -66.52823 37053 ft 503 kts 59°
2026-04-25 21:29 43.31902 -66.43983 37057 ft 503 kts 60°
2026-04-25 21:29 43.34553 -66.35080 37046 ft 504 kts 60°
2026-04-25 21:30 43.37198 -66.26168 37043 ft 504 kts 60°
2026-04-25 21:30 43.39397 -66.18738 37061 ft 504 kts 60°
2026-04-25 21:31 43.42032 -66.09810 37045 ft 504 kts 61°
2026-04-25 21:31 43.44664 -66.00855 37036 ft 504 kts 61°
2026-04-25 21:32 43.47282 -65.91912 37031 ft 503 kts 61°
2026-04-25 21:32 43.49890 -65.82973 37027 ft 503 kts 61°
2026-04-25 21:33 43.52497 -65.74014 37047 ft 502 kts 62°
2026-04-25 21:33 43.55075 -65.65119 37048 ft 502 kts 62°
2026-04-25 21:34 43.57674 -65.56120 37012 ft 502 kts 62°
2026-04-25 21:34 43.60232 -65.47229 37007 ft 501 kts 62°
2026-04-25 21:35 43.62793 -65.38295 37003 ft 500 kts 62°
2026-04-25 21:35 43.65348 -65.29354 37016 ft 500 kts 62°
2026-04-25 21:36 43.67892 -65.20422 36991 ft 499 kts 62°
2026-04-25 21:36 43.70428 -65.11480 37008 ft 499 kts 63°
2026-04-25 21:37 43.72530 -65.04048 37000 ft 499 kts 63°
2026-04-25 21:37 43.75476 -64.93592 37016 ft 499 kts 63°
2026-04-25 21:38 43.77986 -64.84647 36995 ft 499 kts 63°
2026-04-25 21:38 43.80491 -64.75689 36990 ft 498 kts 63°
2026-04-25 21:39 43.82985 -64.66736 36988 ft 498 kts 63°
2026-04-25 21:39 43.85461 -64.57818 37013 ft 498 kts 63°
2026-04-25 21:40 43.87942 -64.48849 36990 ft 499 kts 64°
2026-04-25 21:40 43.90415 -64.39874 36993 ft 498 kts 64°
2026-04-25 21:41 43.92885 -64.30877 36993 ft 499 kts 64°
2026-04-25 21:41 43.95346 -64.21880 36983 ft 499 kts 64°
2026-04-25 21:42 43.97790 -64.12913 36989 ft 499 kts 64°
2026-04-25 21:42 44.00240 -64.03890 36983 ft 499 kts 64°
2026-04-25 21:43 44.02685 -63.94851 36984 ft 500 kts 64°
2026-04-25 21:43 44.05126 -63.85795 36972 ft 500 kts 64°
2026-04-25 21:44 44.07563 -63.76716 36991 ft 501 kts 65°
2026-04-25 21:45 44.11193 -63.63132 36971 ft 502 kts 65°
2026-04-25 21:45 44.13618 -63.54016 36957 ft 502 kts 65°
2026-04-25 21:46 44.16032 -63.44902 36968 ft 502 kts 65°
2026-04-25 21:46 44.18444 -63.35764 36964 ft 502 kts 65°
2026-04-25 21:47 44.20851 -63.26610 36949 ft 502 kts 65°
2026-04-25 21:47 44.23226 -63.17539 36947 ft 501 kts 65°
2026-04-25 21:48 44.25609 -63.08404 36945 ft 500 kts 66°
2026-04-25 21:48 44.27983 -62.99271 36936 ft 500 kts 66°
2026-04-25 21:49 44.30346 -62.90147 36943 ft 500 kts 66°
2026-04-25 21:49 44.32704 -62.81003 36920 ft 499 kts 66°
2026-04-25 21:50 44.35031 -62.71945 36927 ft 498 kts 66°
2026-04-25 21:50 44.37364 -62.62826 36936 ft 498 kts 66°
2026-04-25 21:51 44.39692 -62.53695 36941 ft 498 kts 66°
2026-04-25 21:51 44.42011 -62.44563 36918 ft 497 kts 66°
2026-04-25 21:52 44.44322 -62.35423 36911 ft 497 kts 66°
2026-04-25 21:52 44.46606 -62.26357 36908 ft 496 kts 66°
2026-04-25 21:53 44.48894 -62.17238 36898 ft 496 kts 66°
2026-04-25 21:53 44.51177 -62.08104 36908 ft 496 kts 66°
2026-04-25 21:54 44.53449 -61.98976 36902 ft 496 kts 67°
2026-04-25 21:54 44.55715 -61.89838 36888 ft 495 kts 67°
2026-04-25 21:55 44.57954 -61.80770 36885 ft 495 kts 67°
2026-04-25 21:55 44.60203 -61.71625 36901 ft 495 kts 67°
2026-04-25 21:56 44.62449 -61.62460 36879 ft 495 kts 67°
2026-04-25 21:56 44.64682 -61.53308 36867 ft 495 kts 67°
2026-04-25 21:57 44.66890 -61.44220 36860 ft 494 kts 67°
2026-04-25 21:57 44.69103 -61.35079 36855 ft 494 kts 67°
2026-04-25 21:58 44.71307 -61.25932 36860 ft 494 kts 67°
2026-04-25 21:58 44.73504 -61.16780 36863 ft 494 kts 67°
2026-04-25 21:59 44.75699 -61.07603 36840 ft 494 kts 67°
2026-04-25 21:59 44.77869 -60.98489 36829 ft 494 kts 67°
2026-04-25 22:00 44.81131 -60.84721 36843 ft 495 kts 68°
2026-04-25 22:00 44.83305 -60.75494 36823 ft 496 kts 68°
2026-04-25 22:01 44.85472 -60.66259 36815 ft 496 kts 68°
2026-04-25 22:01 44.87265 -60.58588 36811 ft 496 kts 68°
2026-04-25 22:02 44.89784 -60.47769 36801 ft 497 kts 68°
2026-04-25 22:02 44.91918 -60.38561 36793 ft 496 kts 68°
2026-04-25 22:03 44.94055 -60.29298 36790 ft 496 kts 68°
2026-04-25 22:03 44.96187 -60.20022 36789 ft 496 kts 68°
2026-04-25 22:04 44.98309 -60.10746 36784 ft 496 kts 68°
2026-04-25 22:04 45.00425 -60.01458 36783 ft 496 kts 68°
2026-04-25 22:05 45.02522 -59.92216 36785 ft 497 kts 68°
2026-04-25 22:05 45.04628 -59.82890 36766 ft 498 kts 68°
2026-04-25 22:06 45.06726 -59.73562 36770 ft 498 kts 69°
2026-04-25 22:06 45.08819 -59.64214 36767 ft 498 kts 69°
2026-04-25 22:07 45.10554 -59.56433 36767 ft 498 kts 69°
2026-04-25 22:07 45.12984 -59.45489 36754 ft 498 kts 69°
2026-04-25 22:08 45.15053 -59.36127 36757 ft 498 kts 69°
2026-04-25 22:08 45.17104 -59.26805 36748 ft 498 kts 69°
2026-04-25 22:09 45.19158 -59.17428 36754 ft 498 kts 69°
2026-04-25 22:09 45.21208 -59.08026 36730 ft 498 kts 69°
2026-04-25 22:10 45.23246 -58.98633 36727 ft 497 kts 69°
2026-04-25 22:10 45.25260 -58.89314 36718 ft 497 kts 69°
2026-04-25 22:11 45.27292 -58.79869 36708 ft 497 kts 69°
2026-04-25 22:11 45.29290 -58.70541 36709 ft 497 kts 70°
2026-04-25 22:12 45.31296 -58.61131 36696 ft 497 kts 70°
2026-04-25 22:12 45.32633 -58.54836 36697 ft 497 kts 70°
2026-04-25 22:13 45.35279 -58.42317 36699 ft 497 kts 70°
2026-04-25 22:13 45.37258 -58.32909 36683 ft 497 kts 70°
2026-04-25 22:14 45.39231 -58.23481 36680 ft 497 kts 70°
2026-04-25 22:14 45.41195 -58.14058 36677 ft 497 kts 70°
2026-04-25 22:15 45.43139 -58.04682 36670 ft 497 kts 70°
2026-04-25 22:16 45.46059 -57.90519 36657 ft 496 kts 71°
2026-04-25 22:16 45.47994 -57.81076 36665 ft 497 kts 71°
2026-04-25 22:17 45.49599 -57.73216 36654 ft 497 kts 71°
2026-04-25 22:17 45.51521 -57.63754 36645 ft 496 kts 71°
2026-04-25 22:18 45.53435 -57.54288 36642 ft 496 kts 71°
2026-04-25 22:18 45.55329 -57.44878 36640 ft 496 kts 71°
2026-04-25 22:19 45.57226 -57.35407 36632 ft 496 kts 71°
2026-04-25 22:19 45.59118 -57.25918 36622 ft 496 kts 71°
2026-04-25 22:20 45.60999 -57.16436 36615 ft 496 kts 71°
2026-04-25 22:20 45.62871 -57.06955 36609 ft 496 kts 71°
2026-04-25 22:21 45.64730 -56.97495 36627 ft 496 kts 71°
2026-04-25 22:21 45.66587 -56.87996 36608 ft 496 kts 71°
2026-04-25 22:22 45.68438 -56.78482 36598 ft 497 kts 72°
2026-04-25 22:22 45.70284 -56.68948 36599 ft 497 kts 72°
2026-04-25 22:23 45.72122 -56.59406 36597 ft 497 kts 72°
2026-04-25 22:23 45.73951 -56.49865 36597 ft 497 kts 72°
2026-04-25 22:24 45.75772 -56.40314 36586 ft 497 kts 72°
2026-04-25 22:24 45.77588 -56.30747 36583 ft 497 kts 72°
2026-04-25 22:25 45.79393 -56.21186 36577 ft 497 kts 72°
2026-04-25 22:25 45.81190 -56.11621 36566 ft 497 kts 72°
2026-04-25 22:26 45.82968 -56.02105 36570 ft 497 kts 72°
2026-04-25 22:26 45.84751 -55.92519 36560 ft 497 kts 72°
2026-04-25 22:27 45.86525 -55.82927 36556 ft 497 kts 72°
2026-04-25 22:27 45.88292 -55.73326 36555 ft 497 kts 72°
2026-04-25 22:28 45.90050 -55.63727 36545 ft 497 kts 73°
2026-04-25 22:28 45.91789 -55.54179 36549 ft 498 kts 73°
2026-04-25 22:29 45.93533 -55.44552 36532 ft 498 kts 73°
2026-04-25 22:29 45.95271 -55.34912 36543 ft 499 kts 73°
2026-04-25 22:30 45.97868 -55.20403 36525 ft 499 kts 73°
2026-04-25 22:30 45.99296 -55.12378 36523 ft 499 kts 73°
2026-04-25 22:31 46.01285 -55.01138 36523 ft 498 kts 73°
2026-04-25 22:31 46.02987 -54.91466 36520 ft 498 kts 73°
2026-04-25 22:32 46.04681 -54.81787 36509 ft 498 kts 73°
2026-04-25 22:32 46.06364 -54.72115 36516 ft 498 kts 73°
2026-04-25 22:33 46.08041 -54.62428 36500 ft 498 kts 73°
2026-04-25 22:33 46.09698 -54.52803 36490 ft 498 kts 73°
2026-04-25 22:34 46.11358 -54.43102 36491 ft 497 kts 73°
2026-04-25 22:34 46.13007 -54.33420 36487 ft 497 kts 73°
2026-04-25 22:35 46.14651 -54.23712 36491 ft 498 kts 74°
2026-04-25 22:35 46.16289 -54.13980 36477 ft 499 kts 73°
2026-04-25 22:36 46.17920 -54.04237 36465 ft 500 kts 74°
2026-04-25 22:36 46.19536 -53.94532 36461 ft 500 kts 74°
2026-04-25 22:37 46.21153 -53.84760 36452 ft 501 kts 74°
2026-04-25 22:37 46.22764 -53.74970 36446 ft 501 kts 74°
2026-04-25 22:38 46.24367 -53.65171 36442 ft 501 kts 75°
2026-04-25 22:38 46.25963 -53.55364 36430 ft 501 kts 75°
2026-04-25 22:39 46.27537 -53.45628 36430 ft 501 kts 75°
2026-04-25 22:39 46.29114 -53.35822 36421 ft 501 kts 75°
2026-04-25 22:40 46.30684 -53.26000 36425 ft 501 kts 75°
2026-04-25 22:40 46.32242 -53.16189 36408 ft 500 kts 75°
2026-04-25 22:41 46.33784 -53.06427 36408 ft 500 kts 75°
2026-04-25 22:41 46.35323 -52.96623 36397 ft 500 kts 75°
2026-04-25 22:42 46.36859 -52.86781 36397 ft 501 kts 75°
2026-04-25 22:42 46.38387 -52.76934 36387 ft 501 kts 75°
2026-04-25 22:43 46.39908 -52.67065 36378 ft 501 kts 75°
2026-04-25 22:43 46.41421 -52.57191 36378 ft 501 kts 75°
2026-04-25 22:44 46.42915 -52.47378 36381 ft 501 kts 75°
2026-04-25 22:44 46.44409 -52.37504 36395 ft 502 kts 75°
2026-04-25 22:45 46.45896 -52.27617 36382 ft 502 kts 76°
2026-04-25 22:45 46.47374 -52.17722 36377 ft 502 kts 75°
2026-04-25 22:46 46.48848 -52.07808 36370 ft 502 kts 75°
2026-04-25 22:46 46.50464 -51.97964 36347 ft 501 kts 70°
2026-04-25 22:47 46.52891 -51.88520 36366 ft 498 kts 66°
2026-04-25 22:47 46.55394 -51.79124 36370 ft 498 kts 66°
2026-04-25 22:48 46.57856 -51.69719 36353 ft 498 kts 66°
2026-04-25 22:48 46.60270 -51.60351 36341 ft 498 kts 67°
2026-04-25 22:49 46.62689 -51.50895 36340 ft 499 kts 67°
2026-04-25 22:49 46.65107 -51.41408 36331 ft 500 kts 67°
2026-04-25 22:50 46.67520 -51.31900 36323 ft 500 kts 68°
2026-04-25 22:50 46.69930 -51.22376 36323 ft 501 kts 68°
2026-04-25 22:51 46.72320 -51.12895 36328 ft 501 kts 67°
2026-04-25 22:51 46.74707 -51.03374 36317 ft 500 kts 67°
2026-04-25 22:52 46.77096 -50.93816 36326 ft 501 kts 67°
2026-04-25 22:52 46.78285 -50.89042 36533 ft 500 kts 66°
2026-04-25 22:52 46.79069 -50.85882 36656 ft 499 kts 66°
2026-04-25 22:53 46.80652 -50.79495 36827 ft 500 kts 66°
2026-04-25 22:53 46.81822 -50.74772 36909 ft 502 kts 67°
2026-04-25 22:53 46.83007 -50.69977 37043 ft 503 kts 68°
2026-04-25 22:53 46.84192 -50.65170 37167 ft 503 kts 68°
2026-04-25 22:54 46.85376 -50.60355 37276 ft 504 kts 69°
2026-04-25 22:54 46.86561 -50.55528 37431 ft 504 kts 68°
2026-04-25 22:54 46.87744 -50.50694 37561 ft 504 kts 69°
2026-04-25 22:54 46.88922 -50.45873 37675 ft 504 kts 69°
2026-04-25 22:55 46.90095 -50.41057 37827 ft 504 kts 69°
2026-04-25 22:55 46.91269 -50.36231 37960 ft 504 kts 69°
2026-04-25 22:55 46.92442 -50.31395 38068 ft 504 kts 69°
2026-04-25 22:55 46.93611 -50.26568 38131 ft 502 kts 68°
2026-04-25 22:56 46.95936 -50.16942 38213 ft 501 kts 68°
2026-04-25 22:56 46.98248 -50.07321 38249 ft 501 kts 68°
2026-04-25 22:57 47.00567 -49.97666 38243 ft 502 kts 69°
2026-04-25 22:57 47.02977 -49.88030 38250 ft 504 kts 69°
2026-04-25 22:58 47.05402 -49.78454 38239 ft 505 kts 69°
2026-04-25 22:58 47.07835 -49.68772 38232 ft 507 kts 69°
2026-04-25 22:59 47.10263 -49.59017 38233 ft 508 kts 69°
2026-04-25 22:59 47.12677 -49.49258 38236 ft 509 kts 69°
2026-04-25 23:00 47.15085 -49.39478 38229 ft 508 kts 69°
2026-04-25 23:00 47.17466 -49.29772 38232 ft 507 kts 69°
2026-04-25 23:01 47.19849 -49.20016 38228 ft 506 kts 69°
2026-04-25 23:01 47.22224 -49.10255 38228 ft 505 kts 70°
2026-04-25 23:02 47.24581 -49.00523 38224 ft 504 kts 70°
2026-04-25 23:02 47.26925 -48.90797 38227 ft 504 kts 70°
2026-04-25 23:03 47.29259 -48.81073 38227 ft 503 kts 70°
2026-04-25 23:03 47.31569 -48.71409 38234 ft 503 kts 70°
2026-04-25 23:04 47.33512 -48.63247 38232 ft 504 kts 70°
2026-04-25 23:04 47.36200 -48.51903 38235 ft 504 kts 70°
2026-04-25 23:05 47.38128 -48.43727 38236 ft 504 kts 70°
2026-04-25 23:05 47.40426 -48.33946 38240 ft 504 kts 70°
2026-04-25 23:06 47.42705 -48.24201 38246 ft 505 kts 71°
2026-04-25 23:06 47.44995 -48.14368 38249 ft 506 kts 71°
2026-04-25 23:07 47.47279 -48.04511 38252 ft 507 kts 71°
2026-04-25 23:07 47.49547 -47.94680 38257 ft 508 kts 71°
2026-04-25 23:08 47.51827 -47.84754 38259 ft 510 kts 71°
2026-04-25 23:08 47.54102 -47.74799 38261 ft 510 kts 72°
2026-04-25 23:09 47.56366 -47.64849 38261 ft 509 kts 71°
2026-04-25 23:09 47.58617 -47.54906 38278 ft 509 kts 72°
2026-04-25 23:10 47.60857 -47.44970 38278 ft 508 kts 72°
2026-04-25 23:10 47.63091 -47.35018 38281 ft 508 kts 72°
2026-04-25 23:11 47.65313 -47.25064 38286 ft 509 kts 72°
2026-04-25 23:11 47.67516 -47.15153 38289 ft 509 kts 72°
2026-04-25 23:12 47.69726 -47.05161 38294 ft 509 kts 72°
2026-04-25 23:12 47.71927 -46.95163 38292 ft 509 kts 73°
2026-04-25 23:13 47.74118 -46.85157 38300 ft 509 kts 73°
2026-04-25 23:13 47.76302 -46.75145 38315 ft 508 kts 72°
2026-04-25 23:14 47.78474 -46.65132 38317 ft 508 kts 73°
2026-04-25 23:14 47.80622 -46.55183 38325 ft 508 kts 73°
2026-04-25 23:15 47.82776 -46.45164 38332 ft 509 kts 73°
2026-04-25 23:15 47.84930 -46.35090 38334 ft 511 kts 73°
2026-04-25 23:16 47.87066 -46.25045 38334 ft 512 kts 73°
2026-04-25 23:16 47.89208 -46.14929 38344 ft 512 kts 74°
2026-04-25 23:17 47.91339 -46.04815 38351 ft 511 kts 74°
2026-04-25 23:17 47.93463 -45.94678 38359 ft 512 kts 75°
2026-04-25 23:18 47.95584 -45.84509 38365 ft 514 kts 75°
2026-04-25 23:18 47.97702 -45.74310 38368 ft 514 kts 74°
2026-04-25 23:19 47.99811 -45.64104 38380 ft 513 kts 75°
2026-04-25 23:19 48.01891 -45.53973 38391 ft 512 kts 75°
2026-04-25 23:20 48.03972 -45.43787 38389 ft 512 kts 75°
2026-04-25 23:20 48.06043 -45.33595 38393 ft 511 kts 75°
2026-04-25 23:21 48.08089 -45.23486 38399 ft 511 kts 75°
2026-04-25 23:21 48.10136 -45.13315 38418 ft 511 kts 75°
2026-04-25 23:22 48.12177 -45.03123 38412 ft 511 kts 75°
2026-04-25 23:23 48.15221 -44.87817 38419 ft 511 kts 76°
2026-04-25 23:23 48.17239 -44.77605 38433 ft 511 kts 76°
2026-04-25 23:24 48.19237 -44.67437 38442 ft 512 kts 76°
2026-04-25 23:24 48.21241 -44.57186 38445 ft 512 kts 76°
2026-04-25 23:25 48.23235 -44.46937 38434 ft 512 kts 76°
2026-04-25 23:25 48.25221 -44.36671 38452 ft 512 kts 76°
2026-04-25 23:26 48.27186 -44.26455 38459 ft 512 kts 77°
2026-04-25 23:26 48.29151 -44.16186 38465 ft 512 kts 77°
2026-04-25 23:27 48.31107 -44.05912 38439 ft 511 kts 77°
2026-04-25 23:27 48.33054 -43.95627 38467 ft 511 kts 77°
2026-04-25 23:28 48.34991 -43.85332 38472 ft 511 kts 77°
2026-04-25 23:28 48.36919 -43.75035 38480 ft 512 kts 77°
2026-04-25 23:29 48.38839 -43.64723 38470 ft 512 kts 78°
2026-04-25 23:29 48.40739 -43.54460 38479 ft 512 kts 78°
2026-04-25 23:30 48.42640 -43.44134 38491 ft 512 kts 78°
2026-04-25 23:30 48.44535 -43.33788 38491 ft 512 kts 78°
2026-04-25 23:31 48.46418 -43.23443 38499 ft 512 kts 78°
2026-04-25 23:31 48.48292 -43.13091 38500 ft 512 kts 78°
2026-04-25 23:32 48.50158 -43.02721 38487 ft 512 kts 78°
2026-04-25 23:32 48.52004 -42.92412 38506 ft 512 kts 78°
2026-04-25 23:33 48.53851 -42.82031 38506 ft 513 kts 78°
2026-04-25 23:33 48.55692 -42.71623 38497 ft 513 kts 79°
2026-04-25 23:34 48.57524 -42.61208 38507 ft 513 kts 79°
2026-04-25 23:34 48.59347 -42.50782 38513 ft 513 kts 79°
2026-04-25 23:35 48.61159 -42.40356 38522 ft 513 kts 79°
2026-04-25 23:35 48.62952 -42.29981 38507 ft 513 kts 79°
2026-04-25 23:36 48.64744 -42.19550 38519 ft 512 kts 79°
2026-04-25 23:36 48.66525 -42.09120 38525 ft 512 kts 79°
2026-04-25 23:37 48.68297 -41.98681 38507 ft 512 kts 79°
2026-04-25 23:37 48.70058 -41.88242 38509 ft 512 kts 80°
2026-04-25 23:38 48.71812 -41.77779 38528 ft 512 kts 80°
2026-04-25 23:38 48.73547 -41.67368 38531 ft 513 kts 80°
2026-04-25 23:39 48.75284 -41.56879 38533 ft 513 kts 80°
2026-04-25 23:39 48.77014 -41.46374 38536 ft 514 kts 80°
2026-04-25 23:40 48.78734 -41.35858 38527 ft 514 kts 81°
2026-04-25 23:40 48.80447 -41.25326 38535 ft 514 kts 81°
2026-04-25 23:41 48.82138 -41.14856 38541 ft 514 kts 81°
2026-04-25 23:41 48.83830 -41.04321 38541 ft 514 kts 81°
2026-04-25 23:42 48.85513 -40.93771 38507 ft 513 kts 81°
2026-04-25 23:42 48.87183 -40.83239 38541 ft 513 kts 81°
2026-04-25 23:43 48.88845 -40.72676 38547 ft 514 kts 81°
2026-04-25 23:43 48.90500 -40.62103 38547 ft 515 kts 81°
2026-04-25 23:44 48.92146 -40.51511 38525 ft 515 kts 82°
2026-04-25 23:44 48.93774 -40.40977 38543 ft 514 kts 82°
2026-04-25 23:45 48.95400 -40.30372 38551 ft 514 kts 82°
2026-04-25 23:45 48.97015 -40.19775 38551 ft 514 kts 82°
2026-04-25 23:46 48.98621 -40.09178 38552 ft 514 kts 82°
2026-04-25 23:46 49.00312 -39.98659 38542 ft 516 kts 77°
2026-04-25 23:47 49.02817 -39.88355 38547 ft 519 kts 73°
2026-04-25 23:47 49.05459 -39.78115 38537 ft 519 kts 73°
2026-04-25 23:48 49.08072 -39.67838 38527 ft 519 kts 74°
2026-04-25 23:48 49.10640 -39.57552 38542 ft 519 kts 74°
2026-04-25 23:49 49.13190 -39.47233 38545 ft 519 kts 74°
2026-04-25 23:49 49.15713 -39.36978 38545 ft 519 kts 74°
2026-04-25 23:50 49.18253 -39.26616 38519 ft 520 kts 75°
2026-04-25 23:50 49.20780 -39.16267 38535 ft 519 kts 75°
2026-04-25 23:51 49.23297 -39.05905 38538 ft 520 kts 75°
2026-04-25 23:51 49.25810 -38.95515 38541 ft 520 kts 75°
2026-04-25 23:52 49.28295 -38.85190 38539 ft 520 kts 75°
2026-04-25 23:52 49.30790 -38.74773 38540 ft 520 kts 75°
2026-04-25 23:53 49.33276 -38.64347 38540 ft 520 kts 75°
2026-04-25 23:53 49.35751 -38.53913 38536 ft 520 kts 75°
2026-04-25 23:54 49.38197 -38.43554 38512 ft 520 kts 75°
2026-04-25 23:54 49.40649 -38.33121 38533 ft 519 kts 75°
2026-04-25 23:55 49.42686 -38.24415 38541 ft 520 kts 75°
2026-04-25 23:55 49.45121 -38.13957 38541 ft 520 kts 75°
2026-04-25 23:56 49.47552 -38.03470 38541 ft 520 kts 75°
2026-04-25 23:56 49.49968 -37.92998 38538 ft 519 kts 75°
2026-04-25 23:57 49.52372 -37.82527 38542 ft 518 kts 75°
2026-04-25 23:57 49.54742 -37.72147 38545 ft 517 kts 75°
2026-04-25 23:58 49.57117 -37.61699 38551 ft 516 kts 76°
2026-04-25 23:58 49.59481 -37.51245 38552 ft 516 kts 76°
2026-04-25 23:59 49.61831 -37.40803 38558 ft 515 kts 76°
2026-04-25 23:59 49.64171 -37.30351 38558 ft 516 kts 76°
2026-04-26 00:00 49.66502 -37.19885 38565 ft 516 kts 76°
2026-04-26 00:00 49.68826 -37.09404 38566 ft 516 kts 76°
2026-04-26 00:01 49.71133 -36.98943 38576 ft 517 kts 76°
2026-04-26 00:01 49.73445 -36.88406 38584 ft 518 kts 76°
2026-04-26 00:02 49.75755 -36.77832 38580 ft 519 kts 76°
2026-04-26 00:02 49.78052 -36.67254 38594 ft 519 kts 76°
2026-04-26 00:03 49.80344 -36.56653 38597 ft 519 kts 76°
2026-04-26 00:03 49.82626 -36.46040 38596 ft 519 kts 76°
2026-04-26 00:04 49.84892 -36.35446 38609 ft 518 kts 76°
2026-04-26 00:04 49.87148 -36.24843 38602 ft 516 kts 76°
2026-04-26 00:05 49.89384 -36.14280 38605 ft 515 kts 76°
2026-04-26 00:05 49.91590 -36.03805 38622 ft 514 kts 76°
2026-04-26 00:06 49.93800 -35.93253 38632 ft 514 kts 76°
2026-04-26 00:06 49.96001 -35.82689 38638 ft 514 kts 76°
2026-04-26 00:07 49.98197 -35.72096 38651 ft 515 kts 76°
2026-04-26 00:07 50.00385 -35.61479 38653 ft 516 kts 76°
2026-04-26 00:08 50.02565 -35.50850 38665 ft 516 kts 76°
2026-04-26 00:08 50.04727 -35.40248 38676 ft 518 kts 76°
2026-04-26 00:09 50.06901 -35.29528 38680 ft 521 kts 76°
2026-04-26 00:09 50.09078 -35.18738 38695 ft 523 kts 77°
2026-04-26 00:10 50.11251 -35.07913 38692 ft 524 kts 77°
2026-04-26 00:10 50.13417 -34.97056 38690 ft 524 kts 76°
2026-04-26 00:11 50.15572 -34.86199 38708 ft 524 kts 76°
2026-04-26 00:11 50.17705 -34.75396 38705 ft 524 kts 76°
2026-04-26 00:12 50.19836 -34.64533 38728 ft 523 kts 76°
2026-04-26 00:12 50.21955 -34.53677 38724 ft 522 kts 76°
2026-04-26 00:13 50.24062 -34.42815 38736 ft 522 kts 77°
2026-04-26 00:13 50.26154 -34.31968 38736 ft 521 kts 77°
2026-04-26 00:14 50.28236 -34.21114 38731 ft 520 kts 77°
2026-04-26 00:14 50.30292 -34.10334 38742 ft 520 kts 76°
2026-04-26 00:15 50.32351 -33.99477 38759 ft 520 kts 76°
2026-04-26 00:15 50.34400 -33.88607 38768 ft 520 kts 77°
2026-04-26 00:16 50.36443 -33.77708 38781 ft 521 kts 77°
2026-04-26 00:16 50.38460 -33.66880 38770 ft 521 kts 76°
2026-04-26 00:17 50.40479 -33.55981 38790 ft 521 kts 76°
2026-04-26 00:17 50.42494 -33.45044 38800 ft 521 kts 77°
2026-04-26 00:18 50.44494 -33.34117 38800 ft 521 kts 77°
2026-04-26 00:18 50.46472 -33.23246 38806 ft 520 kts 76°
2026-04-26 00:19 50.48447 -33.12332 38819 ft 519 kts 76°
2026-04-26 00:19 50.50407 -33.01430 38831 ft 518 kts 76°
2026-04-26 00:20 50.52358 -32.90514 38843 ft 517 kts 76°
2026-04-26 00:20 50.54294 -32.79615 38833 ft 517 kts 76°
2026-04-26 00:21 50.56215 -32.68740 38853 ft 516 kts 77°
2026-04-26 00:21 50.58112 -32.57925 38866 ft 516 kts 77°
2026-04-26 00:22 50.60010 -32.47047 38863 ft 515 kts 77°
2026-04-26 00:22 50.61899 -32.36151 38852 ft 515 kts 77°
2026-04-26 00:23 50.63774 -32.25266 38874 ft 514 kts 77°
2026-04-26 00:23 50.65638 -32.14382 38890 ft 514 kts 77°
2026-04-26 00:24 50.67476 -32.03578 38907 ft 514 kts 77°
2026-04-26 00:24 50.69319 -31.92680 38892 ft 514 kts 77°
2026-04-26 00:25 50.71153 -31.81765 38920 ft 513 kts 77°
2026-04-26 00:25 50.72974 -31.70854 38917 ft 513 kts 77°
2026-04-26 00:26 50.74784 -31.59948 38920 ft 514 kts 77°
2026-04-26 00:26 50.76573 -31.49093 38926 ft 514 kts 77°
2026-04-26 00:27 50.78366 -31.38146 38942 ft 513 kts 77°
2026-04-26 00:27 50.80145 -31.27213 38959 ft 514 kts 77°
2026-04-26 00:28 50.81915 -31.16266 38952 ft 514 kts 77°
2026-04-26 00:28 50.83665 -31.05368 38963 ft 514 kts 77°
2026-04-26 00:29 50.85416 -30.94396 38970 ft 514 kts 77°
2026-04-26 00:29 50.87160 -30.83394 38977 ft 515 kts 77°
2026-04-26 00:30 50.88893 -30.72384 38989 ft 515 kts 77°
2026-04-26 00:30 50.90617 -30.61357 38990 ft 516 kts 78°
2026-04-26 00:31 50.92332 -30.50315 38991 ft 516 kts 77°
2026-04-26 00:31 50.94040 -30.39245 39004 ft 516 kts 77°
2026-04-26 00:32 50.95736 -30.28177 38998 ft 516 kts 77°
2026-04-26 00:32 50.98252 -30.11621 39011 ft 517 kts 78°
2026-04-26 00:33 50.99965 -30.00546 39022 ft 517 kts 75°
2026-04-26 00:33 51.02442 -29.89817 39031 ft 517 kts 68°
2026-04-26 00:34 51.05167 -29.79236 39026 ft 517 kts 68°
2026-04-26 00:34 51.07875 -29.68620 39023 ft 517 kts 68°
2026-04-26 00:35 51.10521 -29.58043 39027 ft 517 kts 69°
2026-04-26 00:35 51.13163 -29.47365 39042 ft 517 kts 69°
2026-04-26 00:36 51.15787 -29.36697 39040 ft 517 kts 69°
2026-04-26 00:36 51.18408 -29.26007 39043 ft 517 kts 69°
2026-04-26 00:37 51.21002 -29.15377 39054 ft 517 kts 69°
2026-04-26 00:37 51.23601 -29.04677 39055 ft 517 kts 69°
2026-04-26 00:38 51.26194 -28.93951 39060 ft 517 kts 69°
2026-04-26 00:38 51.28774 -28.83225 39061 ft 517 kts 69°
2026-04-26 00:39 51.31346 -28.72479 39065 ft 517 kts 69°
2026-04-26 00:39 51.33476 -28.63539 39072 ft 517 kts 69°
2026-04-26 00:40 51.36438 -28.51041 39076 ft 516 kts 69°
2026-04-26 00:40 51.38975 -28.40285 39082 ft 516 kts 69°
2026-04-26 00:41 51.41505 -28.29499 39087 ft 516 kts 69°
2026-04-26 00:41 51.44022 -28.18720 39087 ft 516 kts 69°
2026-04-26 00:42 51.46507 -28.08020 39089 ft 515 kts 69°
2026-04-26 00:42 51.48998 -27.97241 39094 ft 515 kts 69°
2026-04-26 00:43 51.51484 -27.86429 39094 ft 515 kts 69°
2026-04-26 00:43 51.53539 -27.77450 39099 ft 515 kts 69°
2026-04-26 00:44 51.56002 -27.66639 39097 ft 515 kts 70°
2026-04-26 00:44 51.58455 -27.55814 39102 ft 515 kts 70°
2026-04-26 00:45 51.60902 -27.44962 39105 ft 516 kts 69°
2026-04-26 00:45 51.63337 -27.34107 39106 ft 516 kts 69°
2026-04-26 00:46 51.65749 -27.23298 39106 ft 516 kts 70°
2026-04-26 00:46 51.68165 -27.12415 39106 ft 516 kts 70°
2026-04-26 00:47 51.70573 -27.01511 39115 ft 516 kts 70°
2026-04-26 00:47 51.72967 -26.90614 39109 ft 515 kts 70°
2026-04-26 00:48 51.75351 -26.79701 39114 ft 515 kts 70°
2026-04-26 00:48 51.77722 -26.68794 39116 ft 515 kts 70°
2026-04-26 00:49 51.80081 -26.57884 39120 ft 514 kts 70°
2026-04-26 00:49 51.82410 -26.47052 39123 ft 513 kts 70°
2026-04-26 00:50 51.84748 -26.36126 39119 ft 513 kts 70°
2026-04-26 00:50 51.87068 -26.25219 39120 ft 512 kts 70°
2026-04-26 00:51 51.89378 -26.14306 39136 ft 511 kts 70°
2026-04-26 00:51 51.91658 -26.03473 39126 ft 511 kts 70°
2026-04-26 00:52 51.93938 -25.92586 39128 ft 510 kts 70°
2026-04-26 00:52 51.96209 -25.81675 39134 ft 509 kts 71°
2026-04-26 00:53 51.98467 -25.70776 39133 ft 509 kts 71°
2026-04-26 00:53 52.00712 -25.59871 39133 ft 510 kts 71°
2026-04-26 00:54 52.02949 -25.48951 39134 ft 510 kts 71°
2026-04-26 00:54 52.05177 -25.38012 39132 ft 510 kts 71°
2026-04-26 00:55 52.07384 -25.27120 39140 ft 510 kts 71°
2026-04-26 00:55 52.09603 -25.16104 39135 ft 510 kts 71°
2026-04-26 00:56 52.11785 -25.05210 39135 ft 509 kts 71°
2026-04-26 00:56 52.13967 -24.94257 39139 ft 508 kts 71°
2026-04-26 00:57 52.16139 -24.83291 39144 ft 508 kts 71°
2026-04-26 00:57 52.18301 -24.72316 39135 ft 508 kts 71°
2026-04-26 00:58 52.20450 -24.61344 39136 ft 508 kts 71°
2026-04-26 00:58 52.22576 -24.50424 39136 ft 508 kts 72°
2026-04-26 00:59 52.24706 -24.39421 39140 ft 508 kts 72°
2026-04-26 00:59 52.26833 -24.28373 39140 ft 509 kts 72°
2026-04-26 01:00 52.28931 -24.17411 39138 ft 509 kts 72°
2026-04-26 01:00 52.31040 -24.06329 39141 ft 510 kts 72°
2026-04-26 01:01 52.33136 -23.95248 39138 ft 510 kts 72°
2026-04-26 01:01 52.35226 -23.84135 39137 ft 511 kts 72°
2026-04-26 01:02 52.37301 -23.73031 39135 ft 511 kts 72°
2026-04-26 01:02 52.39358 -23.61965 39136 ft 511 kts 72°
2026-04-26 01:03 52.41417 -23.50815 39137 ft 511 kts 72°
2026-04-26 01:03 52.43466 -23.39659 39133 ft 511 kts 73°
2026-04-26 01:04 52.45503 -23.28494 39137 ft 511 kts 73°
2026-04-26 01:04 52.47513 -23.17410 39139 ft 510 kts 73°
2026-04-26 01:05 52.49529 -23.06231 39133 ft 510 kts 73°
2026-04-26 01:05 52.51531 -22.95054 39133 ft 510 kts 73°
2026-04-26 01:06 52.53526 -22.83851 39134 ft 511 kts 73°
2026-04-26 01:06 52.55509 -22.72646 39131 ft 511 kts 73°
2026-04-26 01:07 52.57484 -22.61414 39134 ft 511 kts 73°
2026-04-26 01:07 52.59434 -22.50257 39130 ft 511 kts 74°
2026-04-26 01:08 52.61387 -22.39010 39131 ft 511 kts 74°
2026-04-26 01:08 52.63333 -22.27736 39137 ft 512 kts 74°
2026-04-26 01:09 52.65265 -22.16463 39134 ft 511 kts 74°
2026-04-26 01:09 52.67184 -22.05201 39139 ft 511 kts 74°
2026-04-26 01:10 52.69096 -21.93904 39140 ft 511 kts 74°
2026-04-26 01:10 52.70995 -21.82608 39140 ft 511 kts 75°
2026-04-26 01:11 52.72889 -21.71276 39138 ft 511 kts 75°
2026-04-26 01:11 52.74767 -21.59959 39139 ft 511 kts 75°
2026-04-26 01:12 52.76624 -21.48693 39142 ft 511 kts 75°
2026-04-26 01:12 52.78481 -21.37355 39143 ft 511 kts 75°
2026-04-26 01:13 52.80328 -21.26005 39142 ft 511 kts 75°
2026-04-26 01:13 52.82165 -21.14633 39142 ft 511 kts 75°
2026-04-26 01:14 52.83992 -21.03252 39142 ft 511 kts 75°
2026-04-26 01:14 52.85796 -20.91937 39142 ft 511 kts 75°
2026-04-26 01:15 52.87599 -20.80548 39141 ft 511 kts 75°
2026-04-26 01:15 52.89392 -20.69149 39145 ft 512 kts 76°
2026-04-26 01:16 52.91173 -20.57741 39141 ft 511 kts 76°
2026-04-26 01:16 52.92945 -20.46314 39142 ft 511 kts 76°
2026-04-26 01:17 52.94704 -20.34891 39145 ft 511 kts 76°
2026-04-26 01:17 52.96454 -20.23447 39143 ft 511 kts 76°
2026-04-26 01:18 52.98194 -20.11995 39145 ft 511 kts 76°
2026-04-26 01:18 52.99790 -20.00569 39149 ft 511 kts 81°
2026-04-26 01:19 53.00341 -19.88849 39148 ft 509 kts 90°
2026-04-26 01:19 53.00505 -19.77082 39149 ft 509 kts 90°
2026-04-26 01:20 53.00675 -19.65318 39147 ft 510 kts 90°
2026-04-26 01:20 53.00869 -19.53534 39150 ft 510 kts 90°
2026-04-26 01:21 53.01067 -19.41759 39148 ft 510 kts 90°
2026-04-26 01:21 53.01254 -19.30047 39147 ft 510 kts 90°
2026-04-26 01:22 53.01428 -19.18256 39150 ft 510 kts 90°
2026-04-26 01:22 53.01588 -19.06454 39146 ft 510 kts 90°
2026-04-26 01:23 53.01737 -18.94671 39158 ft 510 kts 90°
2026-04-26 01:23 53.01874 -18.82916 39158 ft 510 kts 90°
2026-04-26 01:24 53.01999 -18.71216 39156 ft 509 kts 90°
2026-04-26 01:24 53.02113 -18.59460 39147 ft 509 kts 90°
2026-04-26 01:25 53.02215 -18.47724 39158 ft 508 kts 91°
2026-04-26 01:25 53.02306 -18.35989 39163 ft 507 kts 91°
2026-04-26 01:26 53.02384 -18.24273 39158 ft 507 kts 91°
2026-04-26 01:26 53.02452 -18.12549 39166 ft 507 kts 91°
2026-04-26 01:27 53.02508 -18.00851 39168 ft 507 kts 91°
2026-04-26 01:27 53.02552 -17.89125 39166 ft 507 kts 91°
2026-04-26 01:28 53.02585 -17.77485 39159 ft 507 kts 91°
2026-04-26 01:28 53.02606 -17.65748 39168 ft 508 kts 91°
2026-04-26 01:29 53.02616 -17.54021 39162 ft 508 kts 91°
2026-04-26 01:29 53.02614 -17.42294 39164 ft 508 kts 92°
2026-04-26 01:30 53.02601 -17.30539 39169 ft 508 kts 92°
2026-04-26 01:30 53.02576 -17.18815 39165 ft 508 kts 92°
2026-04-26 01:31 53.02540 -17.07151 39178 ft 508 kts 92°
2026-04-26 01:31 53.02492 -16.95411 39161 ft 507 kts 92°
2026-04-26 01:32 53.02444 -16.85661 39171 ft 507 kts 92°
2026-04-26 01:32 53.02363 -16.72045 39177 ft 506 kts 92°
2026-04-26 01:33 53.02295 -16.62313 39177 ft 506 kts 92°
2026-04-26 01:33 53.02204 -16.50628 39177 ft 506 kts 92°
2026-04-26 01:34 53.02101 -16.38946 39182 ft 506 kts 93°
2026-04-26 01:34 53.01987 -16.27257 39183 ft 505 kts 93°
2026-04-26 01:35 53.01861 -16.15571 39184 ft 505 kts 93°
2026-04-26 01:35 53.01724 -16.03977 39184 ft 505 kts 93°
2026-04-26 01:36 53.01576 -15.92293 39186 ft 505 kts 93°
2026-04-26 01:37 53.01331 -15.74787 39189 ft 505 kts 94°
2026-04-26 01:37 53.01154 -15.63116 39198 ft 506 kts 94°
2026-04-26 01:38 53.00966 -15.51431 39198 ft 506 kts 94°
2026-04-26 01:38 53.00766 -15.39767 39189 ft 506 kts 94°
2026-04-26 01:39 53.00555 -15.28114 39184 ft 504 kts 94°
2026-04-26 01:39 53.00335 -15.16569 39193 ft 503 kts 94°
2026-04-26 01:40 53.00104 -15.04962 39204 ft 502 kts 94°
2026-04-26 01:40 52.99929 -14.93352 39205 ft 502 kts 92°
2026-04-26 01:41 52.99998 -14.81751 39198 ft 502 kts 91°
2026-04-26 01:41 53.00078 -14.70177 39208 ft 501 kts 91°
2026-04-26 01:42 53.00106 -14.58688 39209 ft 501 kts 92°
2026-04-26 01:42 53.00106 -14.47108 39209 ft 501 kts 92°
2026-04-26 01:43 53.00095 -14.35537 39210 ft 501 kts 92°
2026-04-26 01:43 53.00075 -14.23948 39209 ft 501 kts 92°
2026-04-26 01:44 53.00046 -14.12368 39215 ft 502 kts 92°
2026-04-26 01:44 52.99809 -14.00785 39217 ft 500 kts 99°
2026-04-26 01:45 52.98453 -13.89606 39220 ft 496 kts 108°
2026-04-26 01:45 52.96630 -13.78570 39215 ft 496 kts 108°
2026-04-26 01:46 52.94807 -13.67531 39215 ft 495 kts 108°
2026-04-26 01:46 52.93008 -13.56511 39221 ft 494 kts 108°
2026-04-26 01:47 52.91230 -13.45593 39222 ft 493 kts 108°
2026-04-26 01:47 52.89438 -13.34644 39225 ft 492 kts 108°
2026-04-26 01:48 52.87634 -13.23709 39216 ft 491 kts 108°
2026-04-26 01:48 52.85821 -13.12795 39221 ft 491 kts 108°
2026-04-26 01:49 52.83999 -13.01896 39227 ft 491 kts 108°
2026-04-26 01:49 52.82166 -12.91003 39231 ft 491 kts 108°
2026-04-26 01:50 52.80337 -12.80195 39232 ft 492 kts 109°
2026-04-26 01:50 52.78481 -12.69303 39232 ft 492 kts 109°
2026-04-26 01:51 52.76615 -12.58414 39230 ft 492 kts 109°
2026-04-26 01:51 52.74741 -12.47543 39238 ft 492 kts 109°
2026-04-26 01:52 52.72864 -12.36727 39237 ft 492 kts 109°
2026-04-26 01:52 52.70980 -12.25876 39239 ft 493 kts 109°
2026-04-26 01:53 52.69098 -12.15003 39239 ft 493 kts 109°
2026-04-26 01:53 52.67206 -12.04131 39237 ft 492 kts 109°
2026-04-26 01:54 52.65317 -11.93351 39243 ft 492 kts 109°
2026-04-26 01:54 52.63410 -11.82543 39242 ft 491 kts 109°
2026-04-26 01:55 52.61492 -11.71741 39246 ft 491 kts 109°
2026-04-26 01:55 52.59567 -11.60964 39247 ft 491 kts 109°
2026-04-26 01:56 52.57641 -11.50244 39241 ft 491 kts 109°
2026-04-26 01:56 52.55692 -11.39460 39251 ft 491 kts 109°